Location: Newark
(51.1667°N, 4.4833°E)
Time: 10:55:30
(UTC+00:00)

N. Korean satellite - Visible Passes

Search period start: 19 October 2019 00:00
Search period end: 29 October 2019 00:00
Orbit: 455 x 508 km, 97.2° (Epoch: 18 October)

Date Brightness Start Highest point End Pass type
(mag) Time Alt. Az. Time Alt. Az. Time Alt. Az.
19 Oct 8.6 05:13:02 10° NNE 05:16:20 33° E 05:19:39 10° SSE visible
19 Oct 9.2 17:27:13 10° SSW 17:30:06 25° W 17:33:01 10° NW visible
20 Oct 9.8 04:48:17 10° NE 04:50:53 18° E 04:53:29 10° SE visible
21 Oct 10.6 04:24:49 10° E 04:25:19 10° E 04:25:50 10° E visible
22 Oct 7.6 05:30:20 10° NNE 05:33:53 53° E 05:37:29 10° S visible
22 Oct 9.9 17:45:27 10° SW 17:47:42 16° W 17:49:59 10° NW visible
23 Oct 9.0 05:05:18 10° NE 05:08:29 28° E 05:11:41 10° SSE visible
23 Oct 8.8 17:19:08 10° SSW 17:22:12 30° W 17:25:19 10° NNW visible
24 Oct 10.0 04:40:41 10° NE 04:42:59 16° E 04:45:17 10° SE visible
25 Oct 10.4 18:04:26 10° WSW 18:05:20 11° W 18:06:14 10° WNW visible
26 Oct 8.0 05:22:30 10° NNE 05:26:01 43° E 05:29:34 10° S visible
26 Oct 9.6 17:37:09 10° SW 17:39:45 20° W 17:42:24 10° NW visible
27 Oct 9.3 04:57:33 10° NE 05:00:34 24° E 05:03:37 10° SSE visible
27 Oct 8.3 17:11:02 10° SSW 17:14:16 36° W 17:17:34 10° NNW visible
28 Oct 10.2 04:33:09 10° ENE 04:35:03 13° E 04:36:55 10° ESE visible
